Location: Longueuil
(45.5369°N, 73.5107°W)
Time: 20:39:40
(UTC-05:00)

BlueWalker 3 - Visible Passes

Search period start: 20 February 2024 00:00
Search period end: 01 March 2024 00:00
Orbit: 486 x 500 km, 53.2° (Epoch: 20 February)

Date Brightness Start Highest point End Pass type
(mag) Time Alt. Az. Time Alt. Az. Time Alt. Az.
20 Feb 2.2 18:22:37 10° WSW 18:26:22 62° NNW 18:29:39 13° NE visible
20 Feb 4.0 20:01:57 10° WNW 20:04:09 23° NW 20:04:09 23° NW visible
21 Feb 2.2 17:58:54 10° WSW 18:02:39 63° NNW 18:06:25 10° NE visible
21 Feb 3.5 19:38:12 10° WNW 19:41:27 26° N 19:41:30 26° N visible
22 Feb 3.4 19:14:27 10° WNW 19:17:42 27° N 19:18:48 23° NNE visible
23 Feb 3.5 18:50:41 10° WNW 18:53:57 27° N 18:56:04 17° NE visible
23 Feb 4.8 20:29:41 10° NW 20:30:33 15° NW 20:30:33 15° NW visible
24 Feb 3.4 18:26:53 10° WNW 18:30:10 27° N 18:33:17 11° NE visible
24 Feb 4.1 20:05:56 10° NW 20:07:46 22° NNW 20:07:46 22° NNW visible
25 Feb 3.4 18:03:05 10° WNW 18:06:22 27° N 18:09:39 10° NE visible
25 Feb 3.4 19:42:08 10° NW 19:44:59 27° N 19:44:59 27° N visible
26 Feb 3.2 19:18:20 10° NW 19:21:38 28° N 19:22:11 27° NNE visible
26 Feb 5.3 20:56:35 10° NW 20:56:39 10° NW 20:56:39 10° NW visible
27 Feb 3.2 18:54:30 10° NW 18:57:49 28° N 18:59:23 21° NE visible
27 Feb 4.6 20:32:45 10° NW 20:33:51 18° NW 20:33:51 18° NW visible
28 Feb 3.2 18:30:40 10° NW 18:33:58 27° N 18:36:35 14° ENE visible
28 Feb 3.6 20:08:56 10° NW 20:11:04 32° NW 20:11:04 32° NW visible
29 Feb 3.2 18:06:49 10° NW 18:10:06 27° N 18:13:23 10° ENE visible
29 Feb 2.2 19:45:05 10° NW 19:48:19 59° NNW 19:48:19 59° NNW visible
